Hourly Data Report for October 19, 2016

All times are specified in Local Standard Time (LST). Add 1 hour to adjust for Daylight Saving Time where and when it is observed.

CORAL HARBOUR A
NUNAVUT

64°11'36.000" N
83°21'34.000" W
62.20 m
2301002
71915
YZS

Download Data

Hourly Data (October 2016)
Hourly Data Report for October 19, 2016
Temp Definition
°C
Dew Point Temp Definition
°C
Rel Hum Definition
%
Wind Dir Definition
10's deg

Wind Spd Definition
km/h
Visibility Definition
km
Stn Press Definition
kPa
Hmdx Definition


Wind Chill Definition


Weather Definition


TIME
00:00 Legend Double Dagger -7.5 -10.7 78 6 18 24.1 101.54   -14 Snow
01:00 Legend Double Dagger -7.4 -10.9 76 7 16 24.1 101.53   -14 Snow
02:00 Legend Double Dagger -7.5 -11.2 75 6 17 24.1 101.54   -14 Snow
03:00 Legend Double Dagger -7.5 -11.0 76 5 15 24.1 101.54   -14 Snow
04:00 Legend Double Dagger -7.2 -10.6 77 4 14 24.1 101.54   -13 Snow
05:00 Legend Double Dagger -7.4 -10.4 79 2 13 24.1 101.53   -13 Snow
06:00 Legend Double Dagger -7.4 -10.1 81 2 13 24.1 101.53   -13 Snow
07:00 Legend Double Dagger -7.2 -10.7 76 4 11 24.1 101.53   -12 Snow
08:00 Legend Double Dagger -7.7 -10.6 80 1 10 24.1 101.56   -13 LegendNANA
09:00 Legend Double Dagger -7.2 -10.7 76 35 5 24.1 101.57   -10 Snow
10:00 Legend Double Dagger -7.4 -10.0 82 33 10 24.1 101.55   -12 Snow
11:00 Legend Double Dagger -6.9 -9.6 81 33 7 24.1 101.54   -10 Snow
12:00 Legend Double Dagger -6.9 -9.6 81 33 12 24.1 101.53   -12 Snow
13:00 Legend Double Dagger -6.5 -9.7 78 35 12 24.1 101.52   -12 Snow
14:00 Legend Double Dagger -6.1 -10.0 74 34 5 24.1 101.51   -9 Snow
15:00 Legend Double Dagger -6.1 -9.2 79 28 13 24.1 101.51   -11 Snow
16:00 Legend Double Dagger -7.4 -9.8 83 28 11 24.1 101.49   -12 Cloudy
17:00 Legend Double Dagger -8.4 -10.3 86 29 9 24.1 101.47   -13 LegendNANA
18:00 Legend Double Dagger -8.9 -11.0 85 29 12 24.1 101.45   -15 LegendNANA
19:00 Legend Double Dagger -8.6 -11.3 81 25 10 24.1 101.40   -14 Mainly Clear
20:00 Legend Double Dagger -8.6 -11.3 81 28 5 24.1 101.40   -11 LegendNANA
21:00 Legend Double Dagger -8.6 -11.3 81 20 6 24.1 101.31   -12 LegendNANA
22:00 Legend Double Dagger -5.6 -8.0 83 22 24 24.1 101.23   -13 Cloudy
23:00 Legend Double Dagger -5.0 -7.1 85 22 26 24.1 101.14   -12 LegendNANA

Notes on Data Quality.

Legend

  • E = Estimated
  • M = Missing
  • NA = Not Available
  • ‡ = Partner data that is not subject to review by the National Climate Archives
Date modified: